Location: Newark
(16.3678°N, 77.8722°E)
Time: 20:51:00
(UTC+00:00)

S-56A Canister/Altair - Pass Details

Date: 14 December 2019
Orbit: 634 x 2498 km, 38.9° (Epoch: 28 January)

Event Time Altitude Azimuth Distance (km) Brightness Sun altitude
Rises 12:19:07 0° 296° (WNW) 5,748 12.6 -1.1°
Reaches altitude 10° 12:23:41 10° 289° (WNW) 4,489 12.2 -2.1°
Maximum altitude 12:33:45 34° 230° (SW) 2,367 10.9 -4.3°
Drops below altitude 10° 12:40:54 10° 168° (SSE) 3,155 10.8 -5.9°
Sets 12:43:34 0° 158° (SSE) 3,883 11.1 -6.5°
